Location: *
(50.8512°N, 5.6907°E)
Time: 18:17:48
(UTC+00:00)

Cosmos 2058 - Pass Details

Date: 09 April 2020
Orbit: 563 x 583 km, 82.5° (Epoch: 02 June)

Event Time Altitude Azimuth Distance (km) Brightness Sun altitude
Rises 19:12:52 0° 359° (N) 2,776 6.8 -8.2°
Reaches altitude 10° 19:15:28 10° 15° (NNE) 1,876 5.7 -8.6°
Maximum altitude 19:18:43 22° 67° (ENE) 1,270 4.3 -9.0°
Enters shadow 19:21:23 13° 114° (ESE) 1,699 4.6 -9.4°
